Weather History for Patuxent River, MD

Change the Weather History Date:

Sunday, August 25, 2013

  Actual Average Record
Temperature  
Mean Temperature 67 °F -  
Max Temperature 77 °F 83 °F 96 °F (1998)
Min Temperature 57 °F 66 °F 56 °F (1987)
Cooling Degree Days 2    
Growing Degree Days 17 (Base 50)    
Moisture  
Dew Point 57 °F    
Average Humidity 69    
Maximum Humidity 96    
Minimum Humidity 45    
Precipitation  
Precipitation 0.00 in - - ()
Sea Level Pressure  
Sea Level Pressure 30.36 in    
Wind  
Wind Speed 4 mph (ESE)    
Max Wind Speed 7 mph    
Max Gust Speed -    
Visibility 10 miles    
Events Rain    
Averages and records for this station are not official NWS values.
T = Trace of Precipitation, MM = Missing Value Source: NWS Daily Summary

Daily Weather History Graph

Daily Weather History Graph

Search for Another Location

Airport:

Trip Planner

Search our weather history database for the weather conditions in past years. The results will help you decide how hot, cold, wet, or windy it might be!

Date:

Astronomy

Aug. 25, 2013 Rise Set
Actual Time 6:29 AM EDT 7:45 PM EDT
Civil Twilight 6:01 AM EDT 8:12 PM EDT
Nautical Twilight 5:28 AM EDT 8:45 PM EDT
Astronomical Twilight 4:54 AM EDT 9:19 PM EDT
Moon 10:20 PM EDT (8/25) 11:23 AM EDT (8/25)
Length of Visible Light 14h 10m
Length of Day
13h 16m
Waning Gibbous, 76% of the Moon is Illuminated
Aug 25
Waning Gibbous
Aug 28
Last Quarter
Sep 5
New
Sep 12
First Quarter
Sep 19
Full

Hourly Weather History & Observations

Time (EDT) Temp. Dew Point Humidity Pressure Visibility Wind Dir Wind Speed Gust Speed Precip Events Conditions
12:52 AM 68.0 °F 63.0 °F 84% 30.34 in 10.0 mi East 6.9 mph - N/A   Clear
1:52 AM 68.0 °F 62.1 °F 81% 30.33 in 10.0 mi East 5.8 mph - N/A   Clear
2:52 AM 68.0 °F 63.0 °F 84% 30.33 in 10.0 mi East 5.8 mph - N/A   Clear
3:52 AM 66.9 °F 62.1 °F 84% 30.32 in 10.0 mi ESE 5.8 mph - N/A   Clear
4:52 AM 62.1 °F 60.1 °F 93% 30.34 in 10.0 mi Calm Calm - 0.00 in   Partly Cloudy
5:52 AM 59.0 °F 57.9 °F 96% 30.36 in 10.0 mi Calm Calm - N/A   Clear
6:09 AM 60.8 °F 57.2 °F 88% 30.37 in 10.0 mi Calm Calm - N/A   Mostly Cloudy
6:52 AM 60.1 °F 57.0 °F 90% 30.39 in 10.0 mi ENE 3.5 mph - N/A   Mostly Cloudy
7:52 AM 68.0 °F 60.1 °F 76% 30.40 in 10.0 mi Calm Calm - N/A   Mostly Cloudy
8:52 AM 71.1 °F 57.0 °F 61% 30.42 in 10.0 mi NE 4.6 mph - N/A   Mostly Cloudy
9:52 AM 71.1 °F 55.0 °F 57% 30.42 in 10.0 mi East 4.6 mph - N/A   Mostly Cloudy
10:52 AM 72.0 °F 55.0 °F 55% 30.43 in 10.0 mi East 3.5 mph - N/A   Mostly Cloudy
11:52 AM 73.0 °F 55.0 °F 53% 30.41 in 10.0 mi East 4.6 mph - N/A   Mostly Cloudy
12:52 PM 73.9 °F 55.0 °F 52% 30.40 in 10.0 mi Variable 3.5 mph - N/A   Mostly Cloudy
1:52 PM 73.9 °F 55.0 °F 52% 30.39 in 10.0 mi Variable 3.5 mph - N/A   Mostly Cloudy
2:52 PM 75.9 °F 54.0 °F 46% 30.36 in 10.0 mi Calm Calm - N/A   Mostly Cloudy
3:52 PM 75.9 °F 54.0 °F 46% 30.36 in 10.0 mi ESE 3.5 mph - N/A   Mostly Cloudy
4:52 PM 75.9 °F 53.1 °F 45% 30.35 in 10.0 mi SSE 5.8 mph - N/A   Mostly Cloudy
5:52 PM 75.0 °F 55.0 °F 50% 30.33 in 10.0 mi South 4.6 mph - N/A   Mostly Cloudy
6:52 PM 72.0 °F 57.0 °F 59% 30.32 in 10.0 mi SSW 3.5 mph - 0.00 in Rain Light Rain
7:52 PM 69.1 °F 55.0 °F 61% 30.30 in 10.0 mi Calm Calm - 0.00 in   Clear
8:52 PM 64.9 °F 55.9 °F 73% 30.30 in 10.0 mi South 4.6 mph - N/A   Clear
9:52 PM 64.0 °F 55.0 °F 73% 30.30 in 10.0 mi South 5.8 mph - N/A   Clear
10:52 PM 64.0 °F 54.0 °F 70% 30.31 in 10.0 mi South 3.5 mph - N/A   Clear
11:52 PM 57.9 °F 55.0 °F 90% 30.32 in 10.0 mi Calm Calm - N/A   Clear